Location: Grandview
(34.8900°N, 117.1058°W)
Time: 09:52:10
(UTC-07:00)

Tiangong 1 - Pass Details

Date: 12 October 2017
Orbit: 294 x 320 km, 42.8° (Epoch: 18 October)

Event Time Altitude Azimuth Distance (km) Brightness Sun altitude
Rises 19:45:33 0° 303° (WNW) 2,034 5.8 -19.0°
Reaches altitude 10° 19:47:44 10° 318° (NW) 1,198 4.2 -19.4°
Enters shadow 19:49:06 20° 344° (NNW) 796 2.8 -19.7°
